Location: Dompnac
(44.5644°N, 4.1026°E)
Time: 00:35:35
(UTC+00:00)

Cosmos 2082 Rocket - Pass Details

Date: 27 June 2021
Orbit: 832 x 854 km, 71.0° (Epoch: 30 July)

Event Time Altitude Azimuth Distance (km) Brightness Sun altitude
Exits shadow 01:24:38 11° 146° (SE) 2,369 4.2 -18.5°
Maximum altitude 01:28:27 21° 100° (E) 1,788 4.0 -18.2°
Drops below altitude 10° 01:32:32 10° 53° (NE) 2,450 5.5 -17.9°
Sets 01:35:31 0° 39° (NE) 3,392 6.9 -17.7°
